St. Augustine, FL

3:11 PM EDT on July 27, 2017 (GMT -0400)
Saint Augustine

Weather History for KSGJ - January, 2010

Change the Weather History Date:

Thursday, January 21, 2010

  Actual Average Record
Temperature  
Mean Temperature 63 °F -  
Max Temperature 71 °F 62 °F 82 °F (2017)
Min Temperature 55 °F 44 °F 10 °F (1985)
Degree Days  
Heating Degree Days 2    
Growing Degree Days 13 (Base 50)    
Moisture  
Dew Point 62 °F    
Average Humidity 92    
Maximum Humidity 100    
Minimum Humidity 83    
Precipitation  
Precipitation 0.00 in - - ()
Sea Level Pressure  
Sea Level Pressure 29.81 in    
Wind  
Wind Speed 9 mph (SSW)    
Max Wind Speed 25 mph    
Max Gust Speed 44 mph    
Visibility 7 miles    
Events Fog , Rain , Thunderstorm    
Averages and records for this station are not official NWS values.
T = Trace of Precipitation, MM = Missing Value Source: NWS Daily Summary

Daily Weather History Graph

Daily Weather History Graph

Search for Another Location

Airport or City:

Trip Planner

Search our weather history database for the weather conditions in past years. The results will help you decide how hot, cold, wet, or windy it might be!

Date:

Astronomy

Jan. 21, 2010 Rise Set
Actual Time 7:20 AM EST 5:53 PM EST
Civil Twilight 6:55 AM EST 6:18 PM EST
Nautical Twilight 6:25 AM EST 6:47 PM EST
Astronomical Twilight 5:57 AM EST 7:16 PM EST
Moon 10:31 AM EST (1/21) 11:42 PM EST (1/21)
Length of Visible Light 11h 23m
Length of Day
10h 32m
Waxing Crescent, 33% of the Moon is Illuminated
Jan 21
Waxing Crescent
Jan 23
First Quarter
Jan 30
Full
Feb 5
Last Quarter
Feb 13
New

Hourly Weather History & Observations

Time (EST) Temp. Dew Point Humidity Pressure Visibility Wind Dir Wind Speed Gust Speed Precip Events Conditions
12:58 AM 59.0 °F 54.0 °F 83% 29.97 in 10.0 mi NNE 5.8 mph - 0.00 in   Overcast
2:58 AM 55.9 °F 54.0 °F 93% 29.92 in 10.0 mi Calm Calm - N/A   Scattered Clouds
3:58 AM 55.9 °F 54.0 °F 93% 29.90 in 10.0 mi East 3.5 mph - N/A   Mostly Cloudy
4:58 AM 57.9 °F 53.1 °F 84% 29.90 in 10.0 mi ESE 6.9 mph - N/A   Mostly Cloudy
5:58 AM 59.0 °F 54.0 °F 83% 29.90 in 10.0 mi SSE 6.9 mph - N/A   Mostly Cloudy
6:58 AM 61.0 °F 57.0 °F 87% 29.88 in 10.0 mi SSE 10.4 mph - N/A   Mostly Cloudy
7:58 AM 63.0 °F 57.9 °F 84% 29.88 in 10.0 mi SSE 15.0 mph 19.6 mph N/A   Partly Cloudy
8:58 AM 63.0 °F 59.0 °F 87% 29.87 in 10.0 mi SE 9.2 mph - N/A   Partly Cloudy
9:58 AM 66.2 °F 62.6 °F 88% 29.88 in 10.0 mi South 16.1 mph - N/A   Mostly Cloudy
10:08 AM 68.0 °F 62.6 °F 83% 29.87 in 10.0 mi South 15.0 mph 23.0 mph N/A   Mostly Cloudy
10:58 AM 68.0 °F 64.0 °F 87% 29.83 in 10.0 mi South 11.5 mph 24.2 mph N/A   Overcast
11:56 AM 69.8 °F 64.4 °F 83% 29.80 in 10.0 mi South 11.5 mph - N/A   Scattered Clouds
11:58 AM 69.1 °F 64.9 °F 87% 29.80 in 10.0 mi South 13.8 mph 19.6 mph N/A   Scattered Clouds
12:58 PM 71.1 °F 66.0 °F 84% 29.76 in 10.0 mi SSW 12.7 mph - N/A   Partly Cloudy
1:49 PM 71.6 °F 66.2 °F 83% 29.76 in 5.0 mi SSW 8.1 mph - N/A Thunderstorm Haze
1:58 PM 71.1 °F 66.0 °F 84% 29.75 in 6.0 mi SSW 8.1 mph - N/A Thunderstorm Haze
2:26 PM 66.2 °F 62.6 °F 88% 29.72 in 0.5 mi WSW 20.7 mph 39.1 mph N/A Fog , Rain , Thunderstorm Heavy Thunderstorms and Rain
2:30 PM 64.4 °F 62.6 °F 94% 29.67 in 0.5 mi South 15.0 mph 39.1 mph N/A Fog , Rain , Thunderstorm Heavy Thunderstorms and Rain
2:36 PM 64.4 °F 62.6 °F 94% 29.66 in 0.5 mi South 15.0 mph 29.9 mph N/A Fog , Rain , Thunderstorm Heavy Thunderstorms and Rain
2:49 PM 64.4 °F 62.6 °F 94% 29.74 in 0.5 mi NNW 25.3 mph 43.7 mph N/A Fog , Rain , Thunderstorm Thunderstorms and Rain
2:53 PM 64.4 °F 62.6 °F 94% 29.75 in 0.5 mi NNW 18.4 mph 43.7 mph N/A Fog , Rain , Thunderstorm Heavy Thunderstorms and Rain
2:58 PM 64.4 °F 62.6 °F 94% 29.78 in 2.0 mi NW 17.3 mph 28.8 mph N/A Rain , Thunderstorm Thunderstorms and Rain
3:04 PM 64.4 °F 62.6 °F 94% 29.76 in 2.0 mi NW 20.7 mph 26.5 mph N/A Rain , Thunderstorm Thunderstorms and Rain
3:12 PM 64.4 °F 62.6 °F 94% 29.76 in 2.0 mi NW 16.1 mph 26.5 mph N/A Rain , Thunderstorm Heavy Thunderstorms and Rain
3:58 PM 64.4 °F 62.6 °F 94% 29.80 in 2.0 mi SW 6.9 mph - N/A Rain Light Rain
4:09 PM 64.4 °F 62.6 °F 94% 29.78 in 2.0 mi WSW 4.6 mph - N/A Rain , Thunderstorm Rain
4:58 PM 64.4 °F 62.6 °F 94% 29.79 in 2.0 mi South 9.2 mph - N/A Rain Light Rain
5:19 PM 64.4 °F 62.6 °F 94% 29.81 in 2.0 mi SSW 6.9 mph - N/A Rain , Thunderstorm Light Rain
5:27 PM 64.4 °F 62.6 °F 94% 29.80 in 6.0 mi SW 4.6 mph - N/A Rain , Thunderstorm Light Rain
5:34 PM 64.4 °F 62.6 °F 94% 29.80 in 6.0 mi SW 4.6 mph - N/A   Overcast
5:58 PM 64.9 °F 63.0 °F 93% 29.81 in 6.0 mi SW 4.6 mph - N/A   Overcast
6:58 PM 64.4 °F 62.6 °F 94% 29.80 in 10.0 mi SW 4.6 mph - N/A   Partly Cloudy
7:20 PM 64.4 °F 64.4 °F 100% 29.81 in 10.0 mi SSW 4.6 mph - N/A   Mostly Cloudy
7:41 PM 64.4 °F 64.4 °F 100% 29.81 in 10.0 mi SSW 5.8 mph - N/A   Mostly Cloudy
7:52 PM 64.4 °F 64.4 °F 100% 29.82 in 10.0 mi SSW 5.8 mph - N/A   Overcast
7:57 PM 64.4 °F 64.4 °F 100% 29.81 in 10.0 mi SSW 6.9 mph - N/A   Mostly Cloudy
7:58 PM 64.9 °F 64.0 °F 97% 29.81 in 10.0 mi SW 6.9 mph - N/A   Mostly Cloudy
8:29 PM 64.4 °F 64.4 °F 100% 29.81 in 10.0 mi SSW 5.8 mph - N/A   Mostly Cloudy
8:58 PM 66.0 °F 64.0 °F 93% 29.81 in 10.0 mi WSW 5.8 mph - N/A   Overcast
9:58 PM 66.2 °F 64.4 °F 94% 29.81 in 10.0 mi WSW 5.8 mph - N/A   Overcast
10:46 PM 66.0 °F 64.9 °F 96% 29.81 in 10.0 mi SW 5.8 mph - N/A   Overcast
10:58 PM 66.9 °F 64.9 °F 93% 29.81 in 10.0 mi SSW 6.9 mph - N/A   Overcast
11:44 PM 66.2 °F 64.4 °F 94% 29.80 in 10.0 mi SW 4.6 mph - N/A   Overcast
11:58 PM 66.9 °F 64.9 °F 93% 29.80 in 10.0 mi SW 3.5 mph - N/A   Overcast